[[[{"header":{"parameterUnit":"kt","parameterCategory":2,"dx":1,"dy":1,"la1":30.253999710083008,"la2":30.299108505249023,"lo1":-89.0895004272461,"lo2":-89.04439544677734,"nx":28,"ny":28,"refTime":"2022-09-25T21:00:00:Z","depth":"0","parameterNumber":2,"parameterNumberName":"U-component_of_CURRENTS"},"data":[0.2083,0.2149,0.2196,0.2318,0.2371,0.2441,0.2481,0.2676,0.2958,0.3602,0.4167,0.4546,0.5425,0.6721,0.7356,0.7258,0.6719,0.6611,0.6117,0.6616,0.6505,0.6398,0.6518,0.7441,0.7441,0.5982,0.5973,0.5966,0.2073,0.2127,0.2187,0.2242,0.2295,0.228,0.2316,0.2403,0.2605,0.2952,0.3226,0.4181,0.5058,0.5554,0.6404,0.6454,0.5992,0.6366,0.5847,0.5699,0.5935,0.6072,0.6916,0.6915,0.6915,0.6915,0.6915,0.6914,0.2053,0.2085,0.2122,0.2162,0.2187,0.2207,0.2244,0.2282,0.2374,0.2554,0.2617,0.3062,0.3869,0.4549,0.4607,0.5205,0.4517,0.5328,0.5124,0.4532,0.4533,0.466,0.5154,0.5148,0.5142,0.5137,0.5133,0,0.2014,0.2028,0.2045,0.2084,0.21,0.21,0.2095,0.2102,0.2064,0.2142,0.2281,0.2465,0.2909,0.3511,0.3858,0.3997,0.3756,0.3967,0.4085,0.4655,0.4181,0.4123,0.4001,0.4404,0.4393,0.4385,0.4379,0.4375,0.1966,0.1985,0.1989,0.2003,0.2003,0.2004,0.2014,0.1969,0.1968,0.1986,0.2018,0.2188,0.2408,0.2753,0.3029,0.33,0.305,0.3712,0.3677,0.3888,0.3764,0.3219,0.3145,0.4258,0.4273,0.4285,0.4295,0,0.194,0.193,0.1943,0.193,0.1928,0.194,0.1919,0.1926,0.1899,0.1922,0.1928,0.1975,0.2182,0.2279,0.2421,0.2496,0.2728,0.2757,0.3233,0.3334,0.374,0.3601,0.3384,0.3331,0.3073,0.308,0.3086,0,0.1886,0.1894,0.188,0.1891,0.1902,0.1876,0.1886,0.1876,0.1866,0.1885,0.1871,0.1928,0.1969,0.2086,0.2156,0.2408,0.2305,0.2504,0.2552,0.293,0.2983,0.318,0.3063,0.2267,0.2266,0.2264,0.2263,0,0.185,0.1845,0.186,0.1859,0.1847,0.185,0.1842,0.184,0.1844,0.1847,0.1856,0.1904,0.1949,0.2009,0.2128,0.2077,0.2268,0.2201,0.2464,0.2482,0.2906,0.2961,0.3326,0.2262,0.2261,0.2261,0.226,0,0.1812,0.1811,0.183,0.1813,0.1818,0.1823,0.1826,0.1828,0.1836,0.1841,0.1859,0.1875,0.1929,0.1921,0.2036,0.2004,0.2059,0.21,0.2107,0.2321,0.2351,0.2921,0.3135,0.3327,0.221,0.2209,0.2208,0,0.1774,0.179,0.1785,0.1796,0.1805,0.1801,0.1805,0.1815,0.1821,0.1836,0.1859,0.1881,0.1896,0.1914,0.194,0.1998,0.2038,0.1977,0.2095,0.21,0.2309,0.2404,0.2877,0.3084,0.2192,0.2194,0.2195,0,0.1755,0.1757,0.1763,0.1762,0.1771,0.1786,0.179,0.1808,0.1813,0.1838,0.1854,0.1882,0.1897,0.1907,0.193,0.1954,0.2018,0.1971,0.1972,0.2046,0.2121,0.2355,0.2388,0.2013,0.2014,0.2014,0.2183,0,0.1727,0.1733,0.1743,0.1755,0.1764,0.1782,0.1797,0.1806,0.1818,0.1834,0.1857,0.1882,0.1904,0.1913,0.1927,0.1951,0.1983,0.1967,0.1968,0.1978,0.2054,0.2064,0.1946,0.1946,0.1946,0.1946,0,0,0.1703,0.1722,0.1734,0.1744,0.1755,0.1771,0.1786,0.18,0.1834,0.1843,0.185,0.1887,0.1899,0.1924,0.1931,0.1937,0.1975,0.1939,0.1969,0.1972,0.1974,0.2046,0.2056,0.1945,0.1945,0.1945,0.1945,0,0.1705,0.1713,0.1725,0.1736,0.176,0.1776,0.1779,0.1813,0.1828,0.1846,0.1865,0.1881,0.1902,0.1919,0.1928,0.1936,0.1964,0.194,0.1941,0.1967,0.197,0.1973,0.2044,0.2053,0.1945,0.1945,0.1945,0,0.1694,0.1708,0.1717,0.1742,0.1763,0.1778,0.1796,0.182,0.1831,0.1851,0.1872,0.1887,0.1902,0.192,0.1925,0.1925,0.1963,0.1935,0.1936,0.1926,0.1953,0.1956,0.1958,0.1925,0.1925,0.1925,0,0,0.1691,0.1702,0.1731,0.1746,0.1756,0.1786,0.18,0.1817,0.1843,0.1853,0.187,0.1885,0.1899,0.1909,0.1919,0.1931,0.1952,0.1933,0.1934,0.1935,0.1926,0.1952,0.1955,0.1925,0.1925,0.1925,0,0,0.1698,0.1727,0.173,0.175,0.1771,0.1811,0.1824,0.1836,0.1858,0.1861,0.1879,0.1884,0.1898,0.1902,0.1901,0.1919,0.1914,0.1914,0.1922,0.1923,0.1924,0.1912,0.1906,0,0,0,0,0,0.1711,0.1721,0.1723,0.173,0.1773,0.1804,0.1811,0.1839,0.1845,0.1852,0.1872,0.1874,0.1908,0.1907,0.1909,0.1914,0.1924,0.1924,0.1924,0.1936,0.1937,0.1938,0,0,0,0,0,0,0.1714,0.1722,0.1724,0.1761,0.1771,0.1804,0.1819,0.1827,0.1845,0.1848,0.1871,0.1874,0.1888,0.1906,0.1908,0.1912,0.1905,0.1924,0.1924,0.1924,0.1936,0.1937,0.1938,0,0,0,0,0,0.1717,0.1723,0.1783,0.1762,0.1771,0.1809,0.1819,0.1826,0.184,0.1863,0.1868,0.1861,0.1887,0.189,0.1907,0.1911,0.1904,0.1904,0.1924,0.1924,0.1924,0.1937,0,0,0,0,0,0,0.1719,0.1729,0.1786,0.179,0.1762,0.1808,0.1816,0.1825,0.1855,0.186,0.1853,0.1855,0.1887,0.1889,0.1891,0.1911,0.1902,0.1903,0.1904,0.1924,0.1924,0.1924,0,0,0,0,0,0,0.1726,0.1732,0.1788,0.1787,0.1792,0.1807,0.1814,0.1821,0.1854,0.1842,0.1845,0.1853,0.1877,0.1888,0.189,0.1901,0.1902,0.1902,0.1903,0.1903,0.1924,0.1924,0,0,0,0,0,0,0.173,0.1735,0.1786,0.179,0.1793,0.1841,0.1813,0.1851,0.1868,0.184,0.1869,0.1869,0.1875,0.1878,0.1889,0.1899,0.19,0.1902,0.1902,0.1902,0.1903,0,0,0,0,0,0,0,0.1732,0.1688,0.1762,0.1792,0.1795,0.1828,0.1829,0.183,0.1868,0.1868,0.1869,0.1869,0.1897,0.1898,0.1899,0.1898,0,0,0.1901,0.1902,0,0,0,0,0,0,0,0,0.1687,0.1688,0.1763,0.1764,0.1764,0.1828,0.1829,0.183,0.1868,0.1868,0.1869,0.1869,0.1897,0.1898,0.1899,0,0,0,0,0,0,0,0,0,0,0,0,0,0,0,0.1763,0.1763,0,0.1828,0.1829,0.183,0.1868,0.1868,0.1869,0.1869,0.1898,0.1898,0.1899,0,0,0,0,0,0,0,0,0,0,0,0,0,0,0,0,0,0,0,0,0,0,0,0,0,0,0,0,0,0,0,0,0,0,0,0,0,0,0,0,0,0,0,0,0,0,0,0,0,0,0,0,0,0,0,0,0,0,0,0,0,0,0,0,0,0,0,0,0]}],[{"header":{"parameterUnit":"kt","parameterCategory":2,"dx":1,"dy":1,"la1":30.253999710083008,"la2":30.299108505249023,"lo1":-89.0895004272461,"lo2":-89.04439544677734,"nx":28,"ny":28,"refTime":"2022-09-25T21:00:00:Z","depth":"0","parameterNumber":3,"parameterNumberName":"V-component_of_CURRENTS"},"data":[0.0101,0.0157,0.0164,0.0282,0.0315,0.0437,0.051,0.0753,0.1059,0.1768,0.2358,0.2757,0.3051,0.1539,0.0432,-0.0039,-0.0665,-0.0814,-0.1266,-0.0708,-0.0719,-0.073,-0.0712,-0.0639,-0.064,-0.1702,-0.1711,-0.1717,0.0036,0.0049,0.0079,0.01,0.0153,0.0108,0.0178,0.0318,0.0541,0.0903,0.1173,0.1762,0.151,0.1093,0.0513,-0.0131,-0.0623,-0.0482,-0.0664,-0.0865,-0.0292,-0.0245,-0.007,-0.007,-0.007,-0.007,-0.007,-0.007,-0.0085,-0.0056,-0.0081,-0.0064,-0.0058,-0.0024,0.0049,0.0086,0.0203,0.0467,0.0484,0.087,0.0864,0.0528,0.0041,-0.0413,-0.0676,-0.0467,-0.0667,-0.0877,-0.106,-0.0475,-0.0406,-0.0409,-0.0411,-0.0413,-0.0415,0,-0.0194,-0.0224,-0.0226,-0.0225,-0.0218,-0.0206,-0.0198,-0.0166,-0.0174,-0.0064,0.0116,0.0228,0.0133,0.0137,-0.0166,-0.0373,-0.0837,-0.0648,-0.0765,-0.0692,-0.0865,-0.1071,-0.0553,-0.0488,-0.0491,-0.0494,-0.0496,-0.0497,-0.0331,-0.0326,-0.0377,-0.0367,-0.0384,-0.0373,-0.0364,-0.0412,-0.0383,-0.0292,-0.0236,-0.0203,-0.0103,-0.0265,-0.0495,-0.0693,-0.0934,-0.071,-0.0772,-0.0835,-0.1021,-0.1227,-0.1399,-0.0532,-0.0528,-0.0524,-0.0521,0,-0.0406,-0.0467,-0.0456,-0.0512,-0.0522,-0.0496,-0.051,-0.0482,-0.0495,-0.0415,-0.0403,-0.0403,-0.0411,-0.0544,-0.0668,-0.0815,-0.1013,-0.0961,-0.0713,-0.0696,-0.0858,-0.1018,-0.1276,-0.1481,-0.1031,-0.103,-0.103,0,-0.0539,-0.0523,-0.0606,-0.0594,-0.0573,-0.0624,-0.0586,-0.0601,-0.0601,-0.0543,-0.061,-0.0543,-0.0683,-0.0707,-0.0828,-0.0904,-0.0914,-0.1021,-0.1032,-0.0848,-0.0829,-0.0896,-0.1047,-0.1081,-0.1081,-0.108,-0.108,0,-0.063,-0.0655,-0.0652,-0.0659,-0.0698,-0.069,-0.0697,-0.0703,-0.0686,-0.0684,-0.0654,-0.0712,-0.0687,-0.0802,-0.0859,-0.0893,-0.0931,-0.0989,-0.1028,-0.1025,-0.085,-0.083,-0.0907,-0.108,-0.108,-0.108,-0.108,0,-0.073,-0.0746,-0.0737,-0.0765,-0.076,-0.0752,-0.0738,-0.0735,-0.0734,-0.0734,-0.0749,-0.0758,-0.078,-0.0827,-0.0902,-0.0889,-0.0954,-0.0987,-0.0989,-0.0956,-0.0961,-0.0757,-0.0753,-0.0835,-0.0997,-0.0997,-0.0996,0,-0.0808,-0.0801,-0.0835,-0.0814,-0.0804,-0.0825,-0.0822,-0.0816,-0.0813,-0.0791,-0.0817,-0.0804,-0.0849,-0.0842,-0.089,-0.0909,-0.0953,-0.0934,-0.0983,-0.0984,-0.0935,-0.0977,-0.0767,-0.0755,-0.099,-0.099,-0.0991,0,-0.0854,-0.0901,-0.0891,-0.0891,-0.0894,-0.0871,-0.0874,-0.0852,-0.0832,-0.0842,-0.0814,-0.0849,-0.0855,-0.0857,-0.0868,-0.0899,-0.094,-0.0916,-0.0918,-0.0896,-0.1002,-0.0971,-0.0972,-0.0976,-0.0977,-0.0978,-0.0986,0,-0.0967,-0.095,-0.0938,-0.092,-0.0912,-0.0888,-0.0881,-0.0872,-0.0864,-0.0847,-0.0853,-0.0857,-0.0851,-0.0874,-0.0867,-0.09,-0.0895,-0.0913,-0.0883,-0.0924,-0.0922,-0.0927,-0.0874,-0.0874,-0.0874,-0.0874,0,0,-0.1004,-0.0974,-0.0965,-0.0951,-0.0934,-0.0919,-0.0897,-0.0883,-0.0844,-0.0833,-0.0837,-0.0835,-0.0835,-0.0836,-0.0854,-0.0862,-0.0874,-0.0837,-0.091,-0.0914,-0.0918,-0.0918,-0.0922,-0.0873,-0.0873,-0.0873,-0.0873,0,-0.103,-0.1003,-0.098,-0.0967,-0.0934,-0.0911,-0.0909,-0.0866,-0.0851,-0.0836,-0.0826,-0.0834,-0.0823,-0.082,-0.0819,-0.0856,-0.0846,-0.0876,-0.0869,-0.0907,-0.0912,-0.0916,-0.0916,-0.092,-0.0872,-0.0872,-0.0872,0,-0.106,-0.1031,-0.1011,-0.096,-0.093,-0.0909,-0.0883,-0.0851,-0.0834,-0.0807,-0.0785,-0.0788,-0.0784,-0.079,-0.0794,-0.0781,-0.0816,-0.0803,-0.0806,-0.0788,-0.0825,-0.0831,-0.0836,-0.0766,-0.0765,-0.0765,0,0,-0.1075,-0.1049,-0.1,-0.0957,-0.0946,-0.0898,-0.0873,-0.0849,-0.0817,-0.0804,-0.0782,-0.0775,-0.0776,-0.0769,-0.0768,-0.0769,-0.0769,-0.0788,-0.0793,-0.0797,-0.0782,-0.082,-0.0826,-0.0763,-0.0763,-0.0763,0,0,-0.1074,-0.1022,-0.1007,-0.0953,-0.0922,-0.086,-0.0838,-0.0817,-0.0791,-0.079,-0.076,-0.0754,-0.0761,-0.0754,-0.0729,-0.0763,-0.0746,-0.075,-0.0749,-0.0756,-0.0761,-0.0739,-0.0702,0,0,0,0,0,-0.1065,-0.1033,-0.102,-0.1004,-0.0913,-0.087,-0.0858,-0.0812,-0.08,-0.0792,-0.0772,-0.0755,-0.0744,-0.0721,-0.0716,-0.0732,-0.0736,-0.0741,-0.0745,-0.0747,-0.0753,-0.0759,0,0,0,0,0,0,-0.1059,-0.104,-0.1021,-0.0958,-0.0936,-0.087,-0.0842,-0.0829,-0.08,-0.0796,-0.0758,-0.0753,-0.0731,-0.0722,-0.0718,-0.0734,-0.0703,-0.0738,-0.0742,-0.0746,-0.0749,-0.0755,-0.0759,0,0,0,0,0,-0.1053,-0.1038,-0.0903,-0.0958,-0.0939,-0.0873,-0.0843,-0.0832,-0.081,-0.0769,-0.0763,-0.0777,-0.0732,-0.0727,-0.0719,-0.0736,-0.0706,-0.0705,-0.0741,-0.0744,-0.0747,-0.0752,0,0,0,0,0,0,-0.1049,-0.103,-0.0898,-0.089,-0.0961,-0.0876,-0.0862,-0.0834,-0.0785,-0.0777,-0.0788,-0.0786,-0.0732,-0.0728,-0.0725,-0.0739,-0.0708,-0.0707,-0.0706,-0.0743,-0.0746,-0.0748,0,0,0,0,0,0,-0.1037,-0.1024,-0.0894,-0.09,-0.0893,-0.088,-0.0866,-0.0851,-0.0787,-0.0807,-0.0803,-0.0788,-0.0751,-0.0729,-0.0726,-0.0702,-0.071,-0.0709,-0.0708,-0.0707,-0.0745,-0.0747,0,0,0,0,0,0,-0.1031,-0.1019,-0.0902,-0.0897,-0.0891,-0.0806,-0.0867,-0.0784,-0.0763,-0.0812,-0.0762,-0.0762,-0.0754,-0.0749,-0.0727,-0.0705,-0.0703,-0.071,-0.0709,-0.0708,-0.0708,0,0,0,0,0,0,0,-0.1026,-0.1114,-0.094,-0.0894,-0.0888,-0.0822,-0.082,-0.0818,-0.0763,-0.0763,-0.0762,-0.0762,-0.0719,-0.0717,-0.0716,-0.0707,0,0,-0.071,-0.071,0,0,0,0,0,0,0,0,-0.1118,-0.1115,-0.094,-0.0938,-0.0937,-0.0822,-0.082,-0.0819,-0.0763,-0.0763,-0.0762,-0.0762,-0.0718,-0.0717,-0.0716,0,0,0,0,0,0,0,0,0,0,0,0,0,0,0,-0.094,-0.0938,0,-0.0822,-0.082,-0.0819,-0.0763,-0.0763,-0.0762,-0.0762,-0.0718,-0.0717,-0.0716,0,0,0,0,0,0,0,0,0,0,0,0,0,0,0,0,0,0,0,0,0,0,0,0,0,0,0,0,0,0,0,0,0,0,0,0,0,0,0,0,0,0,0,0,0,0,0,0,0,0,0,0,0,0,0,0,0,0,0,0,0,0,0,0,0,0,0,0,0]}]],[[{"header":{"parameterUnit":"kt","parameterCategory":2,"dx":1,"dy":1,"la1":30.253999710083008,"la2":30.299108505249023,"lo1":-89.0895004272461,"lo2":-89.04439544677734,"nx":28,"ny":28,"refTime":"2022-09-25T21:00:00:Z","depth":"2","parameterNumber":2,"parameterNumberName":"U-component_of_CURRENTS"},"data":[0.106,0.1175,0.1241,0.1441,0.1575,0.1748,0.1848,0.1893,0.1948,0.194,0.1922,0.2029,0.217,0.175,0.1707,0.1589,0.175,0.1475,0.2587,0.2151,0.2204,0.2327,0.2006,0,0,0,0,0,0.1025,0.1119,0.1248,0.1429,0.1559,0.1666,0.1866,0.1922,0.2129,0.2294,0.2525,0.2284,0.2266,0.2454,0.2255,0.2322,0.2088,0.2294,0.1892,0.1949,0.2001,0.1757,0.1433,0.1432,0.1431,0.143,0,0,0.0985,0.1059,0.1196,0.1355,0.1503,0.1658,0.1772,0.1964,0.2192,0.2457,0.2744,0.2907,0.2958,0.3053,0.3104,0.308,0.3301,0.306,0.3064,0.308,0.2904,0.2768,0.2876,0.2883,0.2889,0.2895,0.29,0,0.0965,0.1031,0.1136,0.1304,0.1445,0.1603,0.1798,0.191,0.2183,0.241,0.2788,0.3018,0.3393,0.337,0.3613,0.3601,0.3469,0.3443,0.4125,0.2678,0.2523,0.2502,0.2501,0.2619,0.2626,0.263,0.2634,0.2636,0.0941,0.1005,0.1193,0.1278,0.1361,0.153,0.1659,0.1857,0.2019,0.2422,0.2568,0.2984,0.3243,0.371,0.3727,0.3921,0.4053,0.3566,0.328,0.3733,0.3724,0.3684,0.3646,0.2703,0.2694,0.2687,0.2682,0,0.0931,0.1009,0.1142,0.1311,0.1372,0.1483,0.1706,0.185,0.2039,0.2312,0.2403,0.2707,0.3063,0.3253,0.3571,0.3558,0.3776,0.3853,0.3197,0.3151,0.3644,0.361,0.4024,0.4028,0.4032,0.4035,0.4038,0,0.0935,0.1023,0.1155,0.1216,0.1366,0.1469,0.1657,0.1781,0.1999,0.2201,0.2337,0.2554,0.2737,0.299,0.3081,0.3361,0.3419,0.3408,0.3443,0.2891,0.2843,0.3184,0.315,0.3445,0.3442,0.344,0.3438,0,0.0892,0.104,0.1143,0.1193,0.1357,0.1443,0.1543,0.1737,0.1869,0.2108,0.2244,0.2459,0.2621,0.2784,0.2959,0.2864,0.3305,0.3186,0.332,0.332,0.288,0.2833,0.3435,0.3435,0.3434,0.3433,0.3432,0,0.0889,0.0967,0.1092,0.124,0.1283,0.1369,0.1566,0.1674,0.1887,0.1983,0.2151,0.2249,0.2453,0.2392,0.2706,0.2598,0.2712,0.2798,0.2812,0.2839,0.2767,0.2476,0.2611,0.2919,0.2914,0.2909,0.2905,0,0.0821,0.0944,0.1,0.1136,0.1212,0.1295,0.1404,0.1536,0.1653,0.182,0.1933,0.21,0.2067,0.2156,0.227,0.2416,0.255,0.2364,0.2661,0.267,0.267,0.2905,0.2316,0.2555,0.2846,0.2852,0.2857,0,0.0766,0.0891,0.091,0.0973,0.1088,0.1164,0.1276,0.1422,0.1529,0.164,0.1803,0.1945,0.1998,0.2062,0.211,0.2224,0.2448,0.2225,0.2231,0.2337,0.2792,0.2817,0.2859,0.2478,0.2485,0.249,0.281,0,0.076,0.0824,0.0865,0.0964,0.1035,0.1116,0.1207,0.1291,0.1353,0.1437,0.162,0.1708,0.1851,0.1879,0.1899,0.2096,0.2106,0.2082,0.2037,0.2164,0.2282,0.2319,0.1857,0.1856,0.1854,0.1853,0,0,0.0682,0.0761,0.081,0.0877,0.0939,0.1,0.1078,0.1149,0.128,0.1353,0.134,0.1578,0.1625,0.1799,0.1841,0.1859,0.1946,0.1844,0.208,0.2105,0.2129,0.2249,0.2286,0.1851,0.1851,0.185,0.185,0,0.0682,0.0722,0.0775,0.0838,0.0935,0.0989,0.1015,0.1119,0.1176,0.1295,0.1343,0.1449,0.157,0.165,0.1702,0.183,0.1869,0.1848,0.1914,0.2064,0.209,0.2114,0.2237,0.2271,0.1847,0.1847,0.1847,0,0.0646,0.0698,0.0727,0.0824,0.0887,0.0961,0.0974,0.106,0.1131,0.1161,0.128,0.1348,0.1426,0.1546,0.1598,0.1566,0.1802,0.169,0.1698,0.1713,0.1866,0.1896,0.1923,0.1583,0.1582,0.1581,0,0,0.0642,0.0689,0.0773,0.0828,0.0864,0.0945,0.0994,0.1037,0.112,0.1157,0.1221,0.1295,0.1387,0.1432,0.151,0.1607,0.1667,0.1657,0.167,0.168,0.1701,0.1855,0.1884,0.1577,0.1577,0.1577,0,0,0.0644,0.0726,0.0744,0.0804,0.0884,0.0977,0.1025,0.1059,0.1147,0.1153,0.1201,0.1222,0.1342,0.1359,0.131,0.1489,0.1438,0.145,0.1477,0.1493,0.1505,0.1511,0.1288,0,0,0,0,0,0.0678,0.0713,0.0728,0.0748,0.0866,0.0965,0.0985,0.1046,0.1047,0.109,0.1158,0.115,0.1351,0.1308,0.1327,0.1388,0.1533,0.1541,0.1548,0.1608,0.1624,0.1638,0,0,0,0,0,0,0.0686,0.0707,0.0728,0.0815,0.0843,0.0963,0.0961,0.0979,0.1045,0.105,0.1139,0.1151,0.1182,0.1299,0.1316,0.1374,0.1282,0.1536,0.1543,0.1549,0.1614,0.1627,0.1639,0,0,0,0,0,0.0693,0.071,0.0877,0.0816,0.0841,0.0932,0.096,0.0975,0.1032,0.1098,0.1113,0.1076,0.1181,0.1199,0.1309,0.1366,0.1271,0.1277,0.154,0.1546,0.155,0.162,0,0,0,0,0,0,0.0698,0.073,0.0884,0.0895,0.0805,0.0928,0.0946,0.0972,0.1077,0.1093,0.1034,0.1037,0.1181,0.1195,0.1208,0.1364,0.1262,0.1268,0.1272,0.1545,0.1549,0.1552,0,0,0,0,0,0,0.0722,0.0738,0.089,0.0871,0.088,0.0924,0.094,0.1006,0.1077,0.1007,0.1013,0.1034,0.1155,0.1192,0.1203,0.1305,0.1255,0.1261,0.1265,0.1267,0.1548,0.1551,0,0,0,0,0,0,0.073,0.0745,0.0868,0.0876,0.0884,0.1013,0.0984,0.1098,0.1072,0.1001,0.107,0.107,0.1151,0.1164,0.1199,0.1296,0.1302,0.1255,0.1259,0.1262,0.1264,0,0,0,0,0,0,0,0.0738,0.0617,0.0819,0.088,0.0887,0.0998,0.1001,0.1004,0.1072,0.1071,0.1071,0.107,0.122,0.1227,0.1234,0.1289,0,0,0.1254,0.1257,0,0,0,0,0,0,0,0,0.0613,0.0616,0.0819,0.0821,0.0824,0.0998,0.1,0.1003,0.1072,0.1071,0.1071,0.107,0.1222,0.1227,0.1233,0,0,0,0,0,0,0,0,0,0,0,0,0,0,0,0.0819,0.0821,0,0.0998,0.1,0.1002,0.1072,0.1071,0.1071,0.107,0.1224,0.1228,0.1232,0,0,0,0,0,0,0,0,0,0,0,0,0,0,0,0,0,0,0,0,0,0,0,0,0,0,0,0,0,0,0,0,0,0,0,0,0,0,0,0,0,0,0,0,0,0,0,0,0,0,0,0,0,0,0,0,0,0,0,0,0,0,0,0,0,0,0,0,0]}],[{"header":{"parameterUnit":"kt","parameterCategory":2,"dx":1,"dy":1,"la1":30.253999710083008,"la2":30.299108505249023,"lo1":-89.0895004272461,"lo2":-89.04439544677734,"nx":28,"ny":28,"refTime":"2022-09-25T21:00:00:Z","depth":"2","parameterNumber":3,"parameterNumberName":"V-component_of_CURRENTS"},"data":[0.0399,0.0448,0.0488,0.068,0.0795,0.1071,0.1283,0.1686,0.1819,0.1957,0.18,0.1662,0.0878,0.0289,-0.016,-0.0475,-0.0417,-0.0508,-0.0169,-0.0154,-0.0128,-0.0419,-0.0397,0,0,0,0,0,0.0391,0.0431,0.0478,0.0611,0.073,0.0787,0.1064,0.131,0.1742,0.1838,0.211,0.1461,0.102,0.0484,-0.0139,-0.0456,-0.0479,-0.0559,-0.0607,-0.0584,-0.0564,-0.0565,-0.0787,-0.0788,-0.0788,-0.0789,0,0,0.0392,0.0415,0.0481,0.0559,0.064,0.081,0.0966,0.1176,0.1452,0.1799,0.1843,0.1863,0.1316,0.0652,0.0301,-0.0081,-0.0014,-0.0277,-0.027,-0.026,-0.0246,-0.0231,-0.0383,-0.0381,-0.038,-0.0378,-0.0377,0,0.0422,0.0446,0.049,0.0571,0.0634,0.0734,0.0856,0.0969,0.115,0.1344,0.1624,0.1701,0.1421,0.1049,0.0563,0.0333,0.0037,-0.0065,0.0171,-0.018,-0.0166,-0.0183,-0.0164,-0.0308,-0.0305,-0.0304,-0.0302,-0.0301,0.045,0.0473,0.0559,0.0594,0.0627,0.0699,0.0761,0.0868,0.097,0.1185,0.1264,0.1282,0.1339,0.1038,0.0685,0.035,0.0338,-0.0005,-0.0073,0.0154,0.0136,0.0145,0.0154,-0.0276,-0.0279,-0.0282,-0.0284,0,0.0463,0.0511,0.0559,0.0638,0.0665,0.0701,0.0808,0.0867,0.0951,0.1076,0.1103,0.1162,0.1098,0.0897,0.0683,0.0492,0.0298,0.0221,0.0115,0.0076,0.0153,0.0162,0.0064,0.0063,0.0062,0.0062,0.0061,0,0.0499,0.0524,0.06,0.062,0.0673,0.0717,0.0778,0.0815,0.089,0.0983,0.0958,0.1035,0.0853,0.0773,0.0594,0.0417,0.042,0.0245,0.0216,0.0104,0.0096,0.0265,0.0271,0.022,0.0221,0.0221,0.0222,0,0.0497,0.0562,0.0601,0.0618,0.0684,0.0705,0.0738,0.0782,0.0829,0.0866,0.092,0.0845,0.0849,0.0693,0.0563,0.0547,0.0404,0.0362,0.0247,0.0246,0.0103,0.0092,0.0223,0.0223,0.0224,0.0224,0.0224,0,0.0514,0.0557,0.0601,0.066,0.0672,0.0692,0.0739,0.0765,0.0794,0.0812,0.0803,0.0793,0.0738,0.0684,0.0539,0.0578,0.0469,0.0398,0.0392,0.0388,0.0368,0.016,0.0084,0.0319,0.032,0.0321,0.0322,0,0.05,0.0557,0.0581,0.0618,0.0645,0.0658,0.068,0.07,0.0716,0.0743,0.0696,0.071,0.0648,0.0653,0.0586,0.0527,0.0455,0.0506,0.0385,0.0382,0.0388,0.0353,0.0215,0.0109,0.0337,0.0335,0.0334,0,0.0486,0.0549,0.0549,0.0567,0.0596,0.0623,0.0636,0.0662,0.0684,0.0671,0.0693,0.0642,0.0635,0.0621,0.0591,0.054,0.0476,0.0515,0.0512,0.0476,0.037,0.0372,0.0362,0.0455,0.0454,0.0453,0.0346,0,0.0483,0.0513,0.0533,0.0559,0.0582,0.0609,0.062,0.0635,0.0632,0.064,0.0636,0.0611,0.0604,0.0579,0.0566,0.0529,0.0518,0.0507,0.0503,0.049,0.0444,0.0435,0.0537,0.0537,0.0537,0.0537,0,0,0.0441,0.0486,0.0509,0.0535,0.0551,0.0557,0.058,0.0589,0.0614,0.0622,0.0607,0.0594,0.0576,0.056,0.0547,0.0546,0.0518,0.0553,0.05,0.0497,0.0493,0.0449,0.0441,0.0536,0.0536,0.0536,0.0536,0,0.044,0.0467,0.0494,0.0514,0.0541,0.0552,0.0561,0.0587,0.0586,0.0607,0.058,0.0567,0.0578,0.0552,0.0541,0.0547,0.0517,0.0537,0.0549,0.05,0.0497,0.0494,0.045,0.0442,0.0536,0.0536,0.0536,0,0.0409,0.0437,0.0453,0.0502,0.0514,0.0536,0.053,0.056,0.0568,0.0559,0.0568,0.0558,0.0544,0.0543,0.0542,0.054,0.0515,0.054,0.054,0.055,0.05,0.0496,0.0493,0.0537,0.0537,0.0537,0,0,0.0401,0.0433,0.0464,0.0501,0.0512,0.0526,0.0542,0.0543,0.0557,0.0558,0.0559,0.0548,0.0539,0.0539,0.0539,0.0555,0.0531,0.0541,0.0541,0.0541,0.0551,0.0501,0.0498,0.0537,0.0537,0.0537,0,0,0.0393,0.0432,0.0426,0.0476,0.0498,0.0526,0.0543,0.0543,0.0553,0.054,0.0533,0.0532,0.0534,0.0534,0.054,0.0524,0.0521,0.0522,0.0529,0.053,0.0529,0.054,0.0517,0,0,0,0,0,0.039,0.043,0.0424,0.0435,0.0488,0.0531,0.0537,0.0536,0.0518,0.0533,0.0525,0.0514,0.0522,0.0528,0.0533,0.0522,0.0542,0.0542,0.0541,0.0554,0.0554,0.0554,0,0,0,0,0,0,0.0394,0.0407,0.0423,0.0454,0.0466,0.053,0.05,0.0501,0.0516,0.0512,0.0516,0.0514,0.0507,0.0525,0.053,0.0518,0.0516,0.0542,0.0541,0.0541,0.0554,0.0554,0.0554,0,0,0,0,0,0.0398,0.0408,0.0493,0.0453,0.0463,0.0474,0.0498,0.0498,0.0507,0.051,0.0508,0.0504,0.0508,0.051,0.0528,0.0516,0.0513,0.0514,0.0542,0.0541,0.054,0.0554,0,0,0,0,0,0,0.04,0.0406,0.0495,0.0498,0.0434,0.047,0.0475,0.0496,0.0503,0.0502,0.0497,0.0494,0.0509,0.0511,0.0513,0.0514,0.051,0.0512,0.0513,0.0541,0.0541,0.054,0,0,0,0,0,0,0.0401,0.0409,0.0496,0.0473,0.0473,0.0466,0.0471,0.0496,0.0502,0.0488,0.0487,0.0495,0.0499,0.0512,0.0513,0.0553,0.0508,0.0509,0.0511,0.0511,0.0541,0.054,0,0,0,0,0,0,0.0404,0.0411,0.0472,0.0472,0.0472,0.0506,0.0487,0.0535,0.05,0.0488,0.0495,0.0493,0.0499,0.0501,0.0513,0.0553,0.0553,0.0508,0.0509,0.051,0.051,0,0,0,0,0,0,0,0.0407,0.036,0.0478,0.0472,0.0472,0.0528,0.0528,0.0529,0.05,0.0498,0.0496,0.0494,0.0498,0.05,0.0502,0.0553,0,0,0.0508,0.0508,0,0,0,0,0,0,0,0,0.0357,0.0359,0.0478,0.0479,0.048,0.0528,0.0528,0.0529,0.0499,0.0498,0.0496,0.0495,0.0498,0.05,0.0501,0,0,0,0,0,0,0,0,0,0,0,0,0,0,0,0.0478,0.0479,0,0.0528,0.0528,0.0529,0.0499,0.0498,0.0496,0.0495,0.0499,0.05,0.0501,0,0,0,0,0,0,0,0,0,0,0,0,0,0,0,0,0,0,0,0,0,0,0,0,0,0,0,0,0,0,0,0,0,0,0,0,0,0,0,0,0,0,0,0,0,0,0,0,0,0,0,0,0,0,0,0,0,0,0,0,0,0,0,0,0,0,0,0,0]}]],[[{"header":{"parameterUnit":"kt","parameterCategory":2,"dx":1,"dy":1,"la1":30.253999710083008,"la2":30.299108505249023,"lo1":-89.0895004272461,"lo2":-89.04439544677734,"nx":28,"ny":28,"refTime":"2022-09-25T21:00:00:Z","depth":"4","parameterNumber":2,"parameterNumberName":"U-component_of_CURRENTS"},"data":[0.0507,0.055,0.0589,0.0629,0.0673,0.0739,0.0798,0.0868,0.0883,0.1005,0.1024,0.1157,0.1202,0.1235,0.1276,0.1297,0.1216,0.1459,0.1458,0.1333,0.1329,0.1324,0.1182,0,0,0,0,0,0.0543,0.0565,0.0625,0.0698,0.0775,0.0835,0.0928,0.0985,0.1096,0.1091,0.1182,0.1198,0.126,0.129,0.1298,0.1379,0.1349,0.1387,0.1275,0.133,0.1325,0.1189,0,0,0,0,0,0,0.0596,0.0614,0.0692,0.0777,0.0859,0.0903,0.096,0.1036,0.1097,0.1247,0.1233,0.1311,0.1385,0.1407,0.1403,0.1423,0.1353,0.1293,0.129,0.1286,0.1175,0.1223,0.1323,0,0,0,0,0,0.065,0.0699,0.0752,0.0851,0.0932,0.0998,0.1109,0.1129,0.1246,0.1339,0.1365,0.1384,0.1433,0.1399,0.1469,0.1396,0.137,0.1395,0.1388,0.1187,0.1231,0.1213,0.1201,0.1305,0.1304,0.1304,0.1304,0,0.0714,0.0744,0.0874,0.0921,0.0994,0.1103,0.1163,0.1283,0.1314,0.1425,0.1418,0.1476,0.145,0.1448,0.14,0.139,0.1326,0.1383,0.1169,0.1222,0.1207,0.1195,0.1185,0.1299,0.13,0.13,0.13,0,0.0744,0.0823,0.089,0.1028,0.1076,0.1138,0.1275,0.1314,0.1403,0.1429,0.1426,0.1436,0.1413,0.1404,0.1335,0.1283,0.1237,0.1235,0.125,0.1238,0.1182,0.1173,0.1292,0.1294,0.1295,0.1296,0.1297,0,0.0814,0.0861,0.0992,0.102,0.11,0.1193,0.1265,0.132,0.1393,0.141,0.1391,0.1352,0.1272,0.1268,0.1174,0.1148,0.1153,0.1046,0.1043,0.0943,0.0936,0.0941,0.0933,0.0991,0.0989,0.0988,0.0986,0,0.0838,0.0938,0.0991,0.1023,0.1129,0.1193,0.1257,0.1325,0.1362,0.1377,0.138,0.1298,0.1255,0.1179,0.1084,0.102,0.1073,0.0979,0.0999,0.1004,0.0929,0.0924,0.0984,0.0984,0.0984,0.0983,0.0982,0,0.0887,0.093,0.0999,0.109,0.1113,0.117,0.1249,0.1296,0.1347,0.1342,0.129,0.1222,0.1144,0.1043,0.098,0.0938,0.0905,0.0869,0.0874,0.0877,0.0842,0.0936,0.0966,0.0965,0.0963,0.0962,0.0961,0,0.0884,0.0945,0.0982,0.1051,0.1087,0.1144,0.1194,0.1248,0.1259,0.1279,0.1201,0.1141,0.1032,0.0951,0.09,0.0817,0.0827,0.0765,0.0818,0.0823,0.0846,0.0869,0.0723,0.0942,0.0944,0.0946,0.0947,0,0.0868,0.0949,0.0956,0.0993,0.1052,0.1072,0.1142,0.1183,0.1221,0.1201,0.1207,0.1064,0.0998,0.0942,0.0833,0.0793,0.081,0.0737,0.0735,0.0855,0.0846,0.0851,0.0863,0.0721,0.0722,0.0722,0.0934,0,0.0899,0.0934,0.0948,0.0985,0.1011,0.105,0.1085,0.1127,0.1138,0.114,0.1098,0.1003,0.0921,0.086,0.0794,0.0736,0.0765,0.07,0.0706,0.0695,0.0793,0.0803,0.0676,0.0676,0.0676,0.0675,0,0,0.0873,0.0895,0.0901,0.0928,0.0949,0.0975,0.1011,0.1038,0.1057,0.107,0.1055,0.0935,0.0874,0.0797,0.0768,0.0731,0.0752,0.0722,0.0688,0.069,0.0691,0.0784,0.0794,0.0675,0.0675,0.0675,0.0675,0,0.0861,0.0877,0.0893,0.0911,0.0946,0.0953,0.0972,0.0993,0.1025,0.1027,0.0992,0.0937,0.0864,0.0813,0.0768,0.0732,0.0731,0.0684,0.0706,0.0686,0.0688,0.0689,0.0781,0.079,0.0674,0.0674,0.0674,0,0.0846,0.0847,0.0855,0.0869,0.0884,0.0911,0.0907,0.0951,0.0984,0.0939,0.0975,0.0914,0.0844,0.0799,0.078,0.0776,0.0733,0.0703,0.0703,0.0732,0.0713,0.0714,0.0715,0.0706,0.0707,0.0707,0,0,0.0835,0.0843,0.085,0.0865,0.0877,0.0889,0.0902,0.0935,0.094,0.0956,0.0939,0.0909,0.0855,0.0838,0.0803,0.0751,0.0776,0.071,0.0708,0.0707,0.0735,0.0716,0.0716,0.0709,0.0709,0.0709,0,0,0.0829,0.0832,0.0842,0.086,0.0872,0.0873,0.0899,0.0911,0.0929,0.0958,0.092,0.0917,0.0892,0.0859,0.0885,0.0782,0.0785,0.0779,0.0811,0.0808,0.0806,0.0854,0.086,0,0,0,0,0,0.0808,0.0823,0.0831,0.0834,0.0851,0.0858,0.0862,0.0898,0.0919,0.0943,0.0944,0.0923,0.0867,0.089,0.0877,0.0837,0.0727,0.0724,0.0721,0.0749,0.0747,0.0745,0,0,0,0,0,0,0.0809,0.0812,0.083,0.0828,0.0832,0.0857,0.0875,0.0885,0.092,0.0929,0.0924,0.0921,0.0902,0.0893,0.0882,0.0845,0.0863,0.0726,0.0723,0.0721,0.0749,0.0747,0.0745,0,0,0,0,0,0.081,0.0812,0.0836,0.0828,0.0832,0.0872,0.0878,0.0886,0.0926,0.0894,0.0897,0.096,0.09,0.0892,0.0886,0.0851,0.0871,0.0867,0.0724,0.0722,0.072,0.0748,0,0,0,0,0,0,0.081,0.0817,0.0837,0.0839,0.0851,0.0874,0.0881,0.0887,0.0889,0.0892,0.0923,0.093,0.0898,0.0893,0.0886,0.0854,0.0877,0.0872,0.087,0.0723,0.0721,0.0719,0,0,0,0,0,0,0.0816,0.0818,0.0838,0.0865,0.087,0.0875,0.0882,0.0832,0.0887,0.0918,0.0924,0.0926,0.0893,0.0892,0.0888,0.0809,0.0881,0.0877,0.0875,0.0873,0.0721,0.072,0,0,0,0,0,0,0.0817,0.0819,0.0865,0.0869,0.0874,0.0896,0.083,0.0838,0.0939,0.0916,0.0946,0.0949,0.089,0.0887,0.0888,0.0812,0.081,0.0881,0.0878,0.0876,0.0875,0,0,0,0,0,0,0,0.0818,0.08,0.0826,0.0872,0.0876,0.0855,0.0855,0.0856,0.094,0.0942,0.0945,0.0948,0.0903,0.0899,0.0895,0.0814,0,0,0.0881,0.0879,0,0,0,0,0,0,0,0,0.0799,0.08,0.0826,0.0827,0.0827,0.0855,0.0855,0.0856,0.094,0.0942,0.0944,0.0947,0.0902,0.0898,0.0895,0,0,0,0,0,0,0,0,0,0,0,0,0,0,0,0.0826,0.0827,0,0.0855,0.0855,0.0856,0.094,0.0942,0.0944,0.0946,0.0901,0.0898,0.0895,0,0,0,0,0,0,0,0,0,0,0,0,0,0,0,0,0,0,0,0,0,0,0,0,0,0,0,0,0,0,0,0,0,0,0,0,0,0,0,0,0,0,0,0,0,0,0,0,0,0,0,0,0,0,0,0,0,0,0,0,0,0,0,0,0,0,0,0,0]}],[{"header":{"parameterUnit":"kt","parameterCategory":2,"dx":1,"dy":1,"la1":30.253999710083008,"la2":30.299108505249023,"lo1":-89.0895004272461,"lo2":-89.04439544677734,"nx":28,"ny":28,"refTime":"2022-09-25T21:00:00:Z","depth":"4","parameterNumber":3,"parameterNumberName":"V-component_of_CURRENTS"},"data":[-0.0134,-0.0087,-0.0069,0.0012,0.0038,0.009,0.0119,0.0127,0.0156,0.0147,0.0075,0.0014,-0.0138,-0.0048,-0.0291,-0.033,-0.0492,-0.0585,-0.0588,-0.0865,-0.0876,-0.0886,-0.0912,0,0,0,0,0,-0.0163,-0.0135,-0.0085,-0.0049,-0.0002,0.0001,0.0059,0.0051,0.0054,0.0128,0.0067,0.0048,-0.0105,-0.0186,-0.0284,-0.0376,-0.0624,-0.0499,-0.0732,-0.0872,-0.0884,-0.0906,0,0,0,0,0,0,-0.0201,-0.0177,-0.0157,-0.0133,-0.0093,-0.0038,-0.0047,-0.0008,-0.0002,-0.002,0.0033,-0.0072,-0.0152,-0.0317,-0.0362,-0.0471,-0.0584,-0.0664,-0.0686,-0.07,-0.0683,-0.0633,-0.0419,0,0,0,0,0,-0.0242,-0.0258,-0.0236,-0.0203,-0.02,-0.0165,-0.0178,-0.0141,-0.0186,-0.0229,-0.0172,-0.0253,-0.0275,-0.0436,-0.0496,-0.0599,-0.0859,-0.0814,-0.0825,-0.1007,-0.0995,-0.1012,-0.1025,-0.0929,-0.093,-0.0931,-0.0932,0,-0.0293,-0.0291,-0.029,-0.0272,-0.0296,-0.0331,-0.0328,-0.041,-0.0389,-0.0403,-0.0365,-0.042,-0.0488,-0.0509,-0.0678,-0.0802,-0.0833,-0.0841,-0.1035,-0.1015,-0.1026,-0.1037,-0.1047,-0.0941,-0.094,-0.094,-0.0939,0,-0.0314,-0.0329,-0.0318,-0.0351,-0.0363,-0.0392,-0.0427,-0.0435,-0.0535,-0.0519,-0.0561,-0.0664,-0.0707,-0.0816,-0.0893,-0.0967,-0.0997,-0.0975,-0.1036,-0.1046,-0.1061,-0.1067,-0.0957,-0.0953,-0.095,-0.0948,-0.0946,0,-0.034,-0.0342,-0.0369,-0.0369,-0.0376,-0.0436,-0.0468,-0.0542,-0.0616,-0.0614,-0.0793,-0.0784,-0.0991,-0.0993,-0.1086,-0.1092,-0.1109,-0.1168,-0.1168,-0.1297,-0.1302,-0.1304,-0.1311,-0.1254,-0.1255,-0.1256,-0.1256,0,-0.0366,-0.0368,-0.0365,-0.0372,-0.0395,-0.0442,-0.0486,-0.0583,-0.062,-0.0771,-0.0809,-0.0947,-0.1017,-0.1085,-0.1161,-0.1228,-0.117,-0.127,-0.1206,-0.1201,-0.1311,-0.1316,-0.1257,-0.1257,-0.1257,-0.1257,-0.1258,0,-0.0391,-0.0376,-0.0379,-0.0391,-0.0404,-0.043,-0.0501,-0.0558,-0.0689,-0.0796,-0.0926,-0.1037,-0.1126,-0.1201,-0.1266,-0.1288,-0.1317,-0.1344,-0.1342,-0.1277,-0.1305,-0.1346,-0.1323,-0.1324,-0.1325,-0.1326,-0.1326,0,-0.0397,-0.0385,-0.0401,-0.0409,-0.0415,-0.0487,-0.0524,-0.0623,-0.0736,-0.0848,-0.0995,-0.112,-0.1224,-0.1304,-0.1326,-0.1395,-0.1377,-0.1411,-0.1394,-0.1392,-0.1305,-0.1265,-0.1422,-0.1338,-0.1337,-0.1336,-0.1335,0,-0.0409,-0.0423,-0.0429,-0.0437,-0.0483,-0.0499,-0.0566,-0.065,-0.071,-0.0908,-0.0993,-0.1166,-0.1273,-0.1323,-0.1405,-0.1409,-0.1393,-0.145,-0.145,-0.1391,-0.1363,-0.1289,-0.1275,-0.1427,-0.1426,-0.1425,-0.1343,0,-0.0409,-0.0434,-0.0433,-0.0457,-0.0478,-0.0512,-0.0586,-0.0685,-0.0816,-0.0909,-0.1078,-0.1213,-0.1345,-0.1397,-0.1446,-0.1477,-0.1477,-0.1507,-0.1487,-0.1487,-0.1454,-0.1447,-0.1535,-0.1536,-0.1536,-0.1537,0,0,-0.0422,-0.0443,-0.0478,-0.0481,-0.0499,-0.0585,-0.0605,-0.0677,-0.0843,-0.092,-0.1009,-0.1246,-0.1346,-0.1408,-0.1448,-0.1497,-0.1489,-0.1497,-0.1502,-0.1498,-0.1494,-0.1462,-0.1455,-0.1537,-0.1538,-0.1538,-0.1538,0,-0.0413,-0.0466,-0.0472,-0.0496,-0.0552,-0.0585,-0.0609,-0.0723,-0.0819,-0.0946,-0.1058,-0.1184,-0.1345,-0.1408,-0.1449,-0.1498,-0.1515,-0.155,-0.151,-0.1507,-0.1502,-0.1498,-0.1465,-0.1458,-0.1539,-0.1539,-0.1539,0,-0.0429,-0.0447,-0.0469,-0.0515,-0.0558,-0.0577,-0.0655,-0.0722,-0.0774,-0.0902,-0.106,-0.1174,-0.1264,-0.1372,-0.1434,-0.1427,-0.1504,-0.1524,-0.1523,-0.1503,-0.1499,-0.1495,-0.1491,-0.1533,-0.1532,-0.1532,0,0,-0.042,-0.0438,-0.049,-0.0519,-0.0538,-0.0617,-0.065,-0.0729,-0.0827,-0.0892,-0.1026,-0.1153,-0.124,-0.1307,-0.1406,-0.1477,-0.1465,-0.152,-0.152,-0.152,-0.15,-0.1497,-0.1493,-0.1531,-0.1531,-0.153,0,0,-0.0424,-0.0471,-0.0512,-0.0551,-0.059,-0.0652,-0.0683,-0.0751,-0.0879,-0.0938,-0.1051,-0.1091,-0.1229,-0.1276,-0.1248,-0.1409,-0.1412,-0.1419,-0.1372,-0.1374,-0.1374,-0.1329,-0.131,0,0,0,0,0,-0.0432,-0.0447,-0.0482,-0.0495,-0.0588,-0.0615,-0.0631,-0.0737,-0.0811,-0.0843,-0.0982,-0.1036,-0.1294,-0.127,-0.1295,-0.1335,-0.1514,-0.1517,-0.1519,-0.1478,-0.1479,-0.148,0,0,0,0,0,0,-0.0437,-0.0452,-0.0481,-0.0536,-0.0557,-0.0616,-0.0703,-0.0733,-0.0812,-0.0835,-0.1006,-0.1038,-0.1115,-0.1263,-0.1284,-0.1321,-0.1304,-0.1515,-0.1517,-0.152,-0.1478,-0.1479,-0.148,0,0,0,0,0,-0.0441,-0.0453,-0.0584,-0.0538,-0.0556,-0.0677,-0.0708,-0.0734,-0.0827,-0.0933,-0.097,-0.0912,-0.1108,-0.1139,-0.1276,-0.131,-0.129,-0.1297,-0.1516,-0.1518,-0.152,-0.1479,0,0,0,0,0,0,-0.0444,-0.0486,-0.059,-0.0598,-0.0575,-0.068,-0.0704,-0.0734,-0.0927,-0.0958,-0.0838,-0.0852,-0.1104,-0.1128,-0.1151,-0.1302,-0.1278,-0.1286,-0.1291,-0.1518,-0.152,-0.1521,0,0,0,0,0,0,-0.0479,-0.0493,-0.0595,-0.0636,-0.0651,-0.0682,-0.0703,-0.0765,-0.0931,-0.0826,-0.0841,-0.0842,-0.1094,-0.112,-0.1138,-0.1228,-0.127,-0.1277,-0.1282,-0.1285,-0.1519,-0.152,0,0,0,0,0,0,-0.0486,-0.0498,-0.0636,-0.0646,-0.066,-0.0767,-0.0743,-0.0857,-0.0897,-0.0819,-0.091,-0.0916,-0.1084,-0.1105,-0.1129,-0.1209,-0.1223,-0.127,-0.1275,-0.1278,-0.1281,0,0,0,0,0,0,0,-0.0492,-0.0396,-0.0531,-0.0655,-0.0667,-0.0671,-0.0674,-0.0678,-0.0899,-0.0904,-0.0909,-0.0913,-0.1228,-0.1236,-0.1244,-0.1194,0,0,-0.1269,-0.1273,0,0,0,0,0,0,0,0,-0.0392,-0.0395,-0.0531,-0.0532,-0.0533,-0.0672,-0.0674,-0.0677,-0.09,-0.0904,-0.0908,-0.0912,-0.123,-0.1237,-0.1243,0,0,0,0,0,0,0,0,0,0,0,0,0,0,0,-0.0531,-0.0532,0,-0.0672,-0.0674,-0.0676,-0.09,-0.0904,-0.0907,-0.091,-0.1232,-0.1237,-0.1243,0,0,0,0,0,0,0,0,0,0,0,0,0,0,0,0,0,0,0,0,0,0,0,0,0,0,0,0,0,0,0,0,0,0,0,0,0,0,0,0,0,0,0,0,0,0,0,0,0,0,0,0,0,0,0,0,0,0,0,0,0,0,0,0,0,0,0,0,0]}]]]